When you browse on this site, cookies collect data to enhance your experience and personalize the content and advertising you see.
Visit our Privacy Policy to learn more. By continuing to use the site, you agree to this use of cookies and data.

Hourly Weather Santiago del Estero

Today, 8 July, Wednesday

Time Temperature Precipitation Wind Pressure Humidity
00:00 +5°C° 0 mm 2 mps 748 mmHg 89%
01:00 +5°C° 0 mm 1 mps 748 mmHg 91%
02:00 +5°C° 0 mm 1 mps 748 mmHg 92%
03:00 +4°C° 0 mm 1 mps 747 mmHg 93%
04:00 +4°C° 0 mm 1 mps 747 mmHg 93%
05:00 +2°C° 0 mm 0 mps 746 mmHg 93%
06:00 +4°C° 0 mm 1 mps 746 mmHg 91%
07:00 +5°C° 0 mm 1 mps 747 mmHg 89%
08:00 +6°C° 0 mm 1 mps 747 mmHg 87%
09:00 +8°C° 0 mm 1 mps 747 mmHg 77%
10:00 +9°C° 0 mm 2 mps 746 mmHg 68%
11:00 +12°C° 0 mm 2 mps 746 mmHg 58%
12:00 +12°C° 0 mm 3 mps 745 mmHg 53%
13:00 +14°C° 0 mm 3 mps 745 mmHg 49%
14:00 +16°C° 0 mm 3 mps 744 mmHg 44%
15:00 +16°C° 0 mm 3 mps 744 mmHg 45%
16:00 +16°C° 0 mm 2 mps 743 mmHg 45%
17:00 +15°C° 0 mm 2 mps 743 mmHg 46%
18:00 +14°C° 0 mm 2 mps 743 mmHg 50%
19:00 +12°C° 0 mm 2 mps 744 mmHg 55%
20:00 +10°C° 0 mm 2 mps 745 mmHg 59%
21:00 +9°C° 0 mm 2 mps 746 mmHg 61%
22:00 +9°C° 0 mm 2 mps 746 mmHg 63%
23:00 +8°C° 0 mm 2 mps 747 mmHg 65%

Tomorrow, 9 July, Thursday

Time Temperature Precipitation Wind Pressure Humidity
00:00 +8°C° 0 mm 2 mps 747 mmHg 68%
01:00 +7°C° 0 mm 2 mps 747 mmHg 72%
02:00 +6°C° 0 mm 2 mps 748 mmHg 76%
03:00 +6°C° 0 mm 2 mps 748 mmHg 79%
04:00 +5°C° 0 mm 2 mps 748 mmHg 83%
05:00 +5°C° 0 mm 2 mps 748 mmHg 86%
06:00 +6°C° 0 mm 1 mps 749 mmHg 85%
07:00 +7°C° 0 mm 1 mps 749 mmHg 83%
08:00 +7°C° 0 mm 1 mps 749 mmHg 82%
09:00 +9°C° 0 mm 1 mps 749 mmHg 73%
10:00 +12°C° 0 mm 2 mps 749 mmHg 65%
11:00 +14°C° 0 mm 2 mps 749 mmHg 56%
12:00 +14°C° 0 mm 3 mps 749 mmHg 52%
13:00 +17°C° 0 mm 3 mps 748 mmHg 48%
14:00 +18°C° 0 mm 4 mps 747 mmHg 44%
15:00 +18°C° 0 mm 3 mps 746 mmHg 45%
16:00 +18°C° 0 mm 3 mps 745 mmHg 46%
17:00 +17°C° 0 mm 3 mps 745 mmHg 47%
18:00 +16°C° 0 mm 3 mps 745 mmHg 51%
19:00 +13°C° 0 mm 3 mps 745 mmHg 56%
20:00 +12°C° 0 mm 3 mps 745 mmHg 60%
21:00 +12°C° 0 mm 4 mps 744 mmHg 61%
22:00 +11°C° 0 mm 4 mps 744 mmHg 62%
23:00 +11°C° 0 mm 4 mps 743 mmHg 63%

Day after tomorrow, 10 July, Friday

Time Temperature Precipitation Wind Pressure Humidity
00:00 +10°C° 0 mm 4 mps 743 mmHg 64%
01:00 +10°C° 0 mm 4 mps 742 mmHg 65%
02:00 +8°C° 0 mm 4 mps 741 mmHg 65%
03:00 +8°C° 0 mm 4 mps 741 mmHg 67%
04:00 +8°C° 0 mm 4 mps 740 mmHg 68%
05:00 +7°C° 0 mm 4 mps 740 mmHg 70%
06:00 +8°C° 0 mm 3 mps 740 mmHg 71%
07:00 +8°C° 0 mm 3 mps 740 mmHg 72%
08:00 +9°C° 0 mm 3 mps 740 mmHg 74%
09:00 +11°C° 0 mm 4 mps 740 mmHg 67%
10:00 +14°C° 0 mm 5 mps 740 mmHg 60%
11:00 +16°C° 0 mm 6 mps 740 mmHg 53%
12:00 +19°C° 0 mm 5 mps 739 mmHg 49%
13:00 +20°C° 0 mm 5 mps 739 mmHg 45%
14:00 +22°C° 0 mm 4 mps 738 mmHg 41%
15:00 +21°C° 0 mm 3 mps 738 mmHg 43%
16:00 +21°C° 0 mm 2 mps 739 mmHg 45%
17:00 +21°C° 0 mm 1 mps 739 mmHg 47%
18:00 +20°C° 0 mm 1 mps 740 mmHg 51%
19:00 +18°C° 0 mm 2 mps 741 mmHg 54%
20:00 +16°C° 0 mm 3 mps 742 mmHg 58%
21:00 +16°C° 0 mm 3 mps 742 mmHg 61%
22:00 +14°C° 0 mm 3 mps 743 mmHg 65%
23:00 +13°C° 0 mm 3 mps 744 mmHg 68%

11 July, Saturday

Time Temperature Precipitation Wind Pressure Humidity
00:00 +13°C° 0 mm 3 mps 744 mmHg 71%
01:00 +12°C° 0 mm 3 mps 744 mmHg 74%
02:00 +12°C° 0 mm 3 mps 744 mmHg 77%
03:00 +11°C° 0 mm 3 mps 744 mmHg 82%
04:00 +10°C° 0 mm 3 mps 744 mmHg 86%
05:00 +10°C° 0 mm 3 mps 744 mmHg 91%
06:00 +10°C° 0 mm 2 mps 744 mmHg 88%
07:00 +10°C° 0 mm 2 mps 745 mmHg 86%
08:00 +11°C° 0 mm 1 mps 745 mmHg 83%
09:00 +13°C° 0 mm 1 mps 745 mmHg 75%
10:00 +15°C° 0 mm 1 mps 744 mmHg 67%
11:00 +18°C° 0 mm 1 mps 744 mmHg 58%
12:00 +19°C° 0 mm 1 mps 743 mmHg 55%
13:00 +20°C° 0 mm 1 mps 742 mmHg 52%
14:00 +20°C° 0 mm 2 mps 741 mmHg 48%
15:00 +21°C° 0 mm 1 mps 741 mmHg 50%
16:00 +21°C° 0 mm 1 mps 741 mmHg 51%
17:00 +21°C° 0 mm 1 mps 740 mmHg 52%
18:00 +19°C° 0 mm 1 mps 741 mmHg 58%
19:00 +18°C° 0 mm 1 mps 741 mmHg 63%
20:00 +15°C° 0 mm 1 mps 741 mmHg 69%
21:00 +15°C° 0 mm 1 mps 741 mmHg 70%
22:00 +14°C° 0 mm 2 mps 742 mmHg 71%
23:00 +14°C° 0 mm 2 mps 742 mmHg 72%

12 July, Sunday

Time Temperature Precipitation Wind Pressure Humidity
00:00 +13°C° 0 mm 1 mps 742 mmHg 76%
01:00 +12°C° 0 mm 1 mps 742 mmHg 80%
02:00 +11°C° 0 mm 1 mps 741 mmHg 84%
03:00 +11°C° 0 mm 1 mps 741 mmHg 85%
04:00 +10°C° 0 mm 0 mps 741 mmHg 86%
05:00 +9°C° 0 mm 0 mps 741 mmHg 87%
06:00 +10°C° 0 mm 0 mps 741 mmHg 85%
07:00 +11°C° 0 mm 0 mps 741 mmHg 83%
08:00 +12°C° 0 mm 0 mps 742 mmHg 80%
09:00 +15°C° 0 mm 1 mps 742 mmHg 72%
10:00 +19°C° 0 mm 1 mps 742 mmHg 63%
11:00 +21°C° 0 mm 1 mps 742 mmHg 55%
12:00 +21°C° 0 mm 2 mps 741 mmHg 52%
13:00 +24°C° 0 mm 2 mps 740 mmHg 48%
14:00 +25°C° 0 mm 2 mps 739 mmHg 45%
15:00 +25°C° 0 mm 2 mps 739 mmHg 46%
16:00 +24°C° 0 mm 2 mps 739 mmHg 48%
17:00 +24°C° 0 mm 1 mps 739 mmHg 49%
18:00 +22°C° 0 mm 1 mps 739 mmHg 56%
19:00 +20°C° 0 mm 1 mps 740 mmHg 63%
20:00 +18°C° 0 mm 1 mps 740 mmHg 69%
21:00 +18°C° 0 mm 1 mps 740 mmHg 71%
22:00 +18°C° 0 mm 1 mps 740 mmHg 72%
23:00 +16°C° 0 mm 2 mps 741 mmHg 74%

13 July, Monday

Time Temperature Precipitation Wind Pressure Humidity
00:00 +16°C° 0 mm 1 mps 741 mmHg 78%
01:00 +15°C° 0 mm 1 mps 741 mmHg 82%
02:00 +14°C° 0 mm 1 mps 741 mmHg 86%
03:00 +14°C° 0 mm 1 mps 741 mmHg 88%
04:00 +14°C° 0 mm 1 mps 741 mmHg 90%
05:00 +13°C° 0 mm 1 mps 741 mmHg 91%
06:00 +14°C° 0 mm 1 mps 742 mmHg 91%
07:00 +15°C° 0 mm 1 mps 742 mmHg 90%
08:00 +16°C° 0 mm 2 mps 743 mmHg 89%
09:00 +18°C° 0 mm 2 mps 744 mmHg 81%
10:00 +20°C° 0 mm 2 mps 744 mmHg 73%
11:00 +24°C° 0 mm 2 mps 745 mmHg 65%
12:00 +25°C° 0 mm 2 mps 744 mmHg 61%
13:00 +26°C° 0 mm 2 mps 744 mmHg 58%
14:00 +27°C° 0 mm 2 mps 743 mmHg 54%
15:00 +26°C° 0.1 mm 2 mps 743 mmHg 56%
16:00 +26°C° 0.1 mm 3 mps 744 mmHg 59%
17:00 +25°C° 0.1 mm 3 mps 744 mmHg 61%
18:00 +24°C° 0.1 mm 3 mps 744 mmHg 64%
19:00 +22°C° 0.1 mm 3 mps 745 mmHg 67%
20:00 +21°C° 0.1 mm 2 mps 746 mmHg 70%
21:00 +21°C° 0 mm 2 mps 746 mmHg 72%
22:00 +20°C° 0 mm 2 mps 747 mmHg 74%
23:00 +20°C° 0 mm 2 mps 747 mmHg 75%
Show more